Tracking 23722 objects as of 15-Oct-2021
HD Live streaming from Space Station
objects crossing your sky now

SL-8 R/B

Track SL-8 R/B now!
10-day predictions


NORAD ID: 10677
Int'l Code: 1978-019B
Perigee: 753.2 km
Apogee: 776.7 km
Inclination: 74.0 °
Period: 100.0 minutes
Semi major axis: 7135 km
RCS: 4.4372 m2 (large)
Launch date: February 17, 1978
Source: Commonwealth of Independent States (former USSR) (CIS)
Launch site: PLESETSK MISSILE AND SPACE COMPLEX (PKMTR)

Note: This is a ROCKET BODY
aabbcc
Your satellite tracking list
Your tracking list is empty




NASA's NSSDC Master Catalog

Two Line Element Set (TLE):
1 10677U 78019B   21288.38133693  .00000129  00000-0  49234-4 0  9991
2 10677  74.0367 259.6625 0016433 302.2068  57.7493 14.40205756289809
Source of the keplerian elements: AFSPC